Regional Weather Roundup
Issued by NWS

Home | Current Version | Previous Version | Text Only | Print | Product List | Glossary On
Versions: 1 2 3 4 5 6 7 8 9 10 11 12 13 14 15 16 17 18 19 20 21 22 23 24 25 26 27 28 29 30 31 32 33 34 35 36 37 38 39 40 41 42 43 44 45 46 47 48 49 50
000
ASUS43 KMKX 051211
RWRWI

WISCONSIN REGIONAL WEATHER ROUNDUP
NATIONAL WEATHER SERVICE MILWAUKEE/SULLIVAN WI
700 AM CDT SAT SEP 05 2015

NOTE: "FAIR" INDICATES FEW OR NO CLOUDS BELOW 12,000 FEET WITH NO
SIGNIFICANT WEATHER AND/OR OBSTRUCTIONS TO VISIBILITY.

WIZ001-002-006>008-014>016-023>028-051300-
NORTHWEST WISCONSIN

CITY           SKY/WX    TMP DP  RH WIND       PRES   REMARKS
SUPERIOR ARPT  CLOUDY    61  60  96 CALM      29.99S
6HR MIN TEMP:  58; 6HR MAX TEMP:  61;

ASHLAND        CLOUDY    65  65 100 E5        30.02F FOG
6HR MIN TEMP:  62; 6HR MAX TEMP:  70;

HAYWARD        PTCLDY    68  65  90 SE5       30.02F FOG
6HR MIN TEMP:  68; 6HR MAX TEMP:  72;

SIREN          PTCLDY    70  68  94 SE7       29.98S
6HR MIN TEMP:  69; 6HR MAX TEMP:  74;

CUMBERLAND     MOCLDY    64  64 100 SE5       30.01S FOG
RICE LAKE      PTCLDY    67  65  91 E5        30.03S FOG
6HR MIN TEMP:  67; 6HR MAX TEMP:  71;

CHETEK         PTCLDY    67  67  98 E8        30.02F FOG
6HR MIN TEMP:  67; 6HR MAX TEMP:  70;

LADYSMITH      CLEAR     66  64  95 CALM      30.07R FOG
6HR MIN TEMP:  66; 6HR MAX TEMP:  70;

EAU CLAIRE     PTCLDY    68  66  93 NE5       30.01R
6HR MIN TEMP:  68; 6HR MAX TEMP:  72; 6HR PCP:  0.01;

MENOMONIE      PTCLDY    70  69  98 E6        30.01S FOG
6HR MIN TEMP:  70; 6HR MAX TEMP:  73; 6HR PCP:  0.01;

NEW RICHMOND   PTCLDY    73  70  91 SE5       29.99S
6HR MIN TEMP:  71; 6HR MAX TEMP:  73;

OSCEOLA        PTCLDY    73  73 100 SE6       30.00S
6HR MIN TEMP:  72; 6HR MAX TEMP:  74;

$$

WIZ003>005-009-010-017-018-051300-
NORTH CENTRAL WISCONSIN

CITY           SKY/WX    TMP DP  RH WIND       PRES   REMARKS
MANITOWISH WTR CLOUDY    65  65 100 S5        30.09R FOG
6HR MIN TEMP:  65; 6HR MAX TEMP:  67;

ARBOR VITAE    CLOUDY    67  65  94 S6        30.09S FOG
6HR MIN TEMP:  65; 6HR MAX TEMP:  67;

WOODRUFF       CLOUDY    67  65  94 S6        30.09S FOG
6HR MIN TEMP:  65; 6HR MAX TEMP:  67;

RHINELANDER    CLOUDY    66  64  93 SE5       30.11R FOG
6HR MIN TEMP:  64; 6HR MAX TEMP:  66;

EAGLE RIVER    FOG       64  64 100 CALM      30.10R VSB 3/4
6HR MIN TEMP:  64; 6HR MAX TEMP:  65;

LAND O LAKES   CLOUDY    65  64  97 S3        30.10S FOG
6HR MIN TEMP:  64; 6HR MAX TEMP:  66; 6HR PCP:  0.02;

PHILLIPS       PTCLDY    65  65 100 CALM      30.07R FOG
6HR MIN TEMP:  65; 6HR MAX TEMP:  68;

TOMAHAWK       CLOUDY    65  64  96 CALM      30.09S FOG
6HR MIN TEMP:  63; 6HR MAX TEMP:  65;

MEDFORD        FOG       65  65 100 CALM      30.08S VSB<1/4
6HR MIN TEMP:  65; 6HR MAX TEMP:  66;

MERRILL        CLOUDY    66  66 100 CALM      30.09S FOG
6HR MIN TEMP:  65; 6HR MAX TEMP:  67;

$$

WIZ029-030-035-036-043>047-051300-
CENTRAL WISCONSIN

CITY           SKY/WX    TMP DP  RH WIND       PRES   REMARKS
WAUSAU         CLOUDY    68  65  90 SE3       30.07R FOG
6HR MIN TEMP:  66; 6HR MAX TEMP:  68;

MOSINEE        CLOUDY    66  66 100 CALM      30.09R FOG
MARSHFIELD     FOG       67  64  90 SE5       30.06S VSB 1/4
6HR MIN TEMP:  66; 6HR MAX TEMP:  68;

STEVENS POINT  CLOUDY    64  64  97 CALM      30.09R FOG
6HR MIN TEMP:  63; 6HR MAX TEMP:  65;

WAUPACA          N/A     66  65  97 CALM      30.08R FOG
6HR MIN TEMP:  66; 6HR MAX TEMP:  68;

WAUTOMA        FOG       62  62 100 CALM      30.08R VSB<1/4
6HR MIN TEMP:  62; 6HR MAX TEMP:  66;

WISC RAPIDS    CLOUDY    66  63  90 SE5       30.08R FOG
6HR MIN TEMP:  65; 6HR MAX TEMP:  69;

CAMP DOUGLAS   CLOUDY    69  69 100 VRB1      30.04S FOG
6HR MIN TEMP:  64; 6HR MAX TEMP:  69;

$$

WIZ011>013-019>022-031-037>040-048>050-051300-
NORTHEAST WISCONSIN

CITY           SKY/WX    TMP DP  RH WIND       PRES   REMARKS
ANTIGO         CLOUDY    65  65 100 CALM      30.10S FOG
SHAWANO        NOT AVBL
OCONTO         CLOUDY    61  61 100 CALM      30.08R
6HR MIN TEMP:  57; 6HR MAX TEMP:  61; 6HR PCP:  0.03;

STURGEON BAY   CLOUDY    66  63  88 CALM      30.11R VSB<1/4
6HR MIN TEMP:  64; 6HR MAX TEMP:  66;

GREEN BAY      FOG       65  64  97 NE3       30.08R VSB 1
6HR MIN TEMP:  61; 6HR MAX TEMP:  64;

MANITOWOC      FOG       63  63 100 MISG      30.09R VSB 1
6HR MIN TEMP:  62; 6HR MAX TEMP:  65;

APPLETON       MOCLDY    66  66 100 VRB3      30.06S FOG
CLINTONVILLE   CLOUDY    63  63 100 CALM      30.07S FOG
OSHKOSH        CLEAR     64  62  93 S3        30.06S FOG
6HR MIN TEMP:  63; 6HR MAX TEMP:  67;

$$

WIZ032>034-041-042-053>061-051300-
SOUTHWEST WISCONSIN

CITY           SKY/WX    TMP DP  RH WIND       PRES   REMARKS
LA CROSSE      MOCLDY    72  69  90 SE7       30.01R
6HR MIN TEMP:  72; 6HR MAX TEMP:  77; 6HR PCP:  0.06;

SPARTA         CLOUDY    69  67  93 CALM      30.04R
6HR MIN TEMP:  68; 6HR MAX TEMP:  71;

VIROQUA        MOCLDY    71  67  85 S5        30.05R
6HR MIN TEMP:  71; 6HR MAX TEMP:  73; 6HR PCP:  0.04;

BOSCOBEL       CLOUDY    72  70  93 CALM      30.04S FOG
6HR MIN TEMP:  72; 6HR MAX TEMP:  74; 6HR PCP:  0.02;

PRAIRIE DU CHI MOCLDY    73  70  91 CALM      30.03S
6HR MIN TEMP:  73; 6HR MAX TEMP:  74; 6HR PCP:  0.03;

PLATTEVILLE    CLOUDY    71  71  99 SE8       30.06S
6HR MIN TEMP:  71; 6HR MAX TEMP:  74; 6HR PCP:  0.02;

$$

WIZ056-057-062-063-064-067-068-051300-
SOUTH CENTRAL WISCONSIN

CITY           SKY/WX    TMP DP  RH WIND       PRES   REMARKS
REEDSBURG      PTCLDY    67  66  99 CALM      30.05F FOG
6HR MIN TEMP:  66; 6HR MAX TEMP:  69;

BARABOO/DELLS  PTCLDY    65  63  93 CALM      30.07S FOG
6HR MIN TEMP:  64; 6HR MAX TEMP:  69;

LONE ROCK      CLOUDY    69  68  96 E8        30.04F FOG
6HR MIN TEMP:  69; 6HR MAX TEMP:  72; 6HR PCP:  0.03;

MINERAL POINT  CLOUDY    72  66  83 SE5       30.07S
MADISON        PTCLDY    68  65  90 CALM      30.06F
6HR MIN TEMP:  66; 6HR MAX TEMP:  69;

MIDDLETON      PTCLDY    67  67  99 CALM      30.07F
6HR MIN TEMP:  65; 6HR MAX TEMP:  70;

WATERTOWN      FOG       65  65 100 CALM      30.08R VSB 3/4
6HR MIN TEMP:  64; 6HR MAX TEMP:  65;

MONROE           N/A     66  64  94 CALM      30.09R FOG
JANESVILLE     NOT AVBL
$$

WIZ051-052-058>065-066-070>072-051300-
SOUTHEAST WISCONSIN

CITY           SKY/WX    TMP DP  RH WIND       PRES   REMARKS
MILWAUKEE      CLOUDY    66  65  96 NE3       30.08S FOG
6HR MIN TEMP:  65; 6HR MAX TEMP:  67; 6HR PCP:  0.28;

WAUKESHA       FOG       64  64 100 CALM      30.10R VSB 1/4
MILWAUKEE/TIMM CLOUDY    64  61  88 CALM      30.09S FOG
RACINE         CLOUDY    68  65  90 SE5       30.10S FOG
6HR MIN TEMP:  66; 6HR MAX TEMP:  69; 6HR PCP:  0.01;

BURLINGTON     FOG       65  65  99 CALM      30.09R VSB 1/2
6HR MIN TEMP:  62; 6HR MAX TEMP:  65;

KENOSHA        FOG       66  65  96 NE3       30.09R VSB 1/4
6HR MIN TEMP:  64; 6HR MAX TEMP:  68;

FOND DU LAC    PTCLDY    65  63  93 CALM      30.07R
6HR MIN TEMP:  64; 6HR MAX TEMP:  66;

SHEBOYGAN      MOCLDY    64  64 100 CALM      30.08R
6HR MIN TEMP:  64; 6HR MAX TEMP:  65; 6HR PCP: TRACE;

WEST BEND      MOCLDY    63  61  94 CALM      30.08S FOG
JUNEAU         MOCLDY    63  63  97 CALM      30.09R FOG
6HR MIN TEMP:  63; 6HR MAX TEMP:  66;

$$

LSZ147-162-051300-
LAKE SUPERIOR

STATION/POSITION TIME  TEMP    WIND        PRES    WAVE
                       AIR SEA DIR/SP/G            HT/PER
                 (UTC) (F)     (DEG/KT/KT) (MB)    (FT/S)
W MID LAKE BUOY  1150   62 56  140/ 12/ 12 1015.2F   1/ 3
DEVILS ISLAND    1200   67     160/ 10/ 13 1015.2F
PORT WING        1100   64     100/  2/  4 1015.9
SAXON HARBOR     1100   67        CALM     1016.6R
$$

LMZ867-665-643>646-051300-
LAKE MICHIGAN

STATION/POSITION TIME  TEMP    WIND        PRES    WAVE
                       AIR SEA DIR/SP/G            HT/PER



USA.gov is the U.S. government's official web portal to all federal, state and local government web resources and services.